Location: Val-d'Or
(48.1170°N, 77.7670°W)
Time: 01:10:38
(UTC-04:00)

Envisat - Visible Passes

Search period start: 21 May 2018 00:00
Search period end: 31 May 2018 00:00
Orbit: 764 x 766 km, 98.2° (Epoch: 20 May)

Date Brightness Start Highest point End Pass type
(mag) Time Alt. Az. Time Alt. Az. Time Alt. Az.
21 May 5.4 21:36:25 10° SW 21:40:15 21° W 21:44:07 10° NW visible
23 May 5.8 22:03:58 10° WSW 22:06:10 13° W 22:08:22 10° WNW visible
24 May 5.1 21:24:45 10° SSW 21:28:59 26° W 21:33:14 10° NW visible
26 May 5.6 21:51:47 10° SW 21:54:51 16° W 21:57:56 10° NW visible
29 May 5.5 21:39:55 10° SW 21:43:34 20° W 21:47:14 10° NW visible
